Location: Doschendorf
(50.0069°N, 11.0602°E)
Time: 03:30:30
(UTC+00:00)

Envisat - Pass Details

Date: 17 November 2019
Orbit: 764 x 766 km, 98.1° (Epoch: 05 December)

Event Time Altitude Azimuth Distance (km) Brightness Sun altitude
Rises 16:50:50 0° 157° (SSE) 3,222 6.1 -12.9°
Reaches altitude 10° 16:53:08 10° 156° (SSE) 2,299 5.4 -13.3°
Maximum altitude 16:58:11 73° 73° (ENE) 806 2.9 -14.1°
Drops below altitude 10° 17:03:16 10° 349° (N) 2,315 5.5 -14.9°
Sets 17:05:35 0° 348° (NNW) 3,245 6.3 -15.2°
